Location: Big Sable Point
(44.0575°N, 86.5149°W)
Time: 05:38:48
(UTC-05:00)

OTV 5 (USA 277) - Visible Passes

Search period start: 18 November 2018 00:00
Search period end: 28 November 2018 00:00
Orbit: 339 x 348 km, 54.5° (Epoch: 14 November)

Date Brightness Start Highest point End Pass type
(mag) Time Alt. Az. Time Alt. Az. Time Alt. Az.
25 Nov ? 06:33:23 10° S 06:35:46 23° SE 06:38:09 10° ENE visible
26 Nov ? 06:56:15 10° SW 06:59:07 80° SE 07:02:00 10° NE visible
27 Nov ? 05:47:26 21° SSE 05:47:54 22° SE 05:50:14 10° ENE visible
27 Nov ? 07:19:58 10° W 07:22:40 35° NNW 07:25:22 10° NE visible
